Regional Weather Roundup
Issued by NWS

Home | Current Version | Previous Version | Graphics & Text | Print | Product List | Glossary On
Versions: 1 2 3 4 5 6 7 8 9 10 11 12 13 14 15 16 17 18 19 20 21 22 23 24 25 26 27 28 29 30 31 32 33 34 35 36 37 38 39 40 41 42 43 44 45 46 47 48 49 50
681
ASUS43 KOAX 171410
RWRNE

WEATHER ROUNDUP FOR NEBRASKA
NATIONAL WEATHER SERVICE OMAHA NE
800 AM CST WED JAN 17 2018

NOTES: SATELLITE DATA IS BEING USED TO AUGMENT CLOUD COVER ABOVE
       12000 FEET.
       "FAIR" INDICATES FEW OR NO CLOUDS BELOW 12,000 FEET WITH NO
       SIGNIFICANT WEATHER AND/OR OBSTRUCTIONS TO VISIBILITY.


NEZ001>004-019>022-054>056-171500-
NEBRASKA PANHANDLE

CITY           SKY/WX    TMP DP  RH WIND       PRES   REMARKS
SCOTTSBLUFF    CLEAR      5   1  83 NW13      30.25S WCI -12
ALLIANCE       CLEAR      2  -2  83 W3        30.21S
CHADRON        CLEAR      9   4  80 SW8       30.24R WCI  -3
GORDON         FAIR      11   3  70 W6        30.21S WCI   1
KIMBALL        CLEAR     17   7  62 W9        30.22R WCI   6
SIDNEY         CLEAR      8   3  80 W6        30.22F WCI  -2
$$

NEZ057>060-069>072-079>082-171500-
SOUTHWEST NEBRASKA

CITY           SKY/WX    TMP DP  RH WIND       PRES   REMARKS
NORTH PLATTE   CLEAR      6  -2  69 SW3       30.33S
IMPERIAL       CLEAR      4   0  83 CALM      30.29R
LEXINGTON      CLEAR      9   0  66 SW3       30.36S
MCCOOK         CLEAR      3  -3  76 CALM      30.36R
OGALLALA       CLEAR      4   0  80 CALM      30.29S
$$

NEZ005>010-023>029-035>040-094-171500-
NORTH CENTRAL NEBRASKA

CITY           SKY/WX    TMP DP  RH WIND       PRES   REMARKS
VALENTINE      CLEAR     12   4  70 W8        30.24R WCI   0
AINSWORTH      CLEAR     13   4  65 SW10      30.24F WCI   0
BROKEN BOW     CLEAR      6  -3  66 S3        30.32F
O`NEILL        CLEAR     10   2  68 S10       30.30S WCI  -4
ORD            CLEAR      9   0  67 CALM      30.34F
THEDFORD       CLEAR      8   1  72 SW5       30.27S WCI  -1
$$

NEZ041-046>049-061>064-073>077-083>087-171500-
SOUTH CENTRAL NEBRASKA

CITY           SKY/WX    TMP DP  RH WIND       PRES   REMARKS
GRAND ISLAND   CLOUDY     9   0  67 SW13      30.41F WCI  -7
AURORA         CLOUDY     7   0  72 SW13      30.42F WCI  -9
HASTINGS       CLOUDY     6  -1  73 SW10      30.43S WCI  -9
HEBRON         CLOUDY     7   1  77 CALM      30.52R
HOLDREGE       CLOUDY     6   0  75 S10       30.39S WCI  -9
KEARNEY        CLOUDY     5  -2  72 SW10      30.40S WCI -10
YORK           CLOUDY     5   0  78 S12       30.45F WCI -11
$$

NEZ011>018-030>034-042>045-171500-
NORTHEAST NEBRASKA

CITY           SKY/WX    TMP DP  RH WIND       PRES   REMARKS
NORFOLK        CLOUDY     8   0  69 SW9       30.38F WCI  -5
ALBION         CLOUDY     8   1  73 S3        30.38F
BLAIR          CLOUDY     9   3  75 S15       30.48F WCI  -8
COLUMBUS       CLOUDY     9   1  70 SW8       30.45F WCI  -3
FREMONT        CLOUDY     8   1  76 S9        30.48F WCI  -6
TEKAMAH        CLOUDY     3  -3  76 SE10      30.50F WCI -12
WAYNE          CLOUDY     9   1  67 S9        30.39F WCI  -4
$$

NEZ050>053-065>068-078-088>093-171500-
SOUTHEAST NEBRASKA

CITY           SKY/WX    TMP DP  RH WIND       PRES   REMARKS
LINCOLN        CLOUDY     8   1  73 S10       30.53F WCI  -6
OMAHA EPPLEY   CLOUDY     2  -3  80 SE10      30.54F WCI -14
BEATRICE       CLOUDY     3  -1  82 S7        30.54F WCI  -9
FALLS CITY     CLOUDY    -3  -7  82 S5        30.59F WCI -13
NEBRASKA CITY  PTCLDY     3   0  87 SW8       30.55S WCI -10
PLATTSMOUTH    PTCLDY     1  -3  83 S6        30.53F WCI -11
$$

NEZ044-045-051>053-067-171500-
OMAHA AREA

CITY           SKY/WX    TMP DP  RH WIND       PRES   REMARKS
OMAHA EPPLEY   CLOUDY     2  -3  80 SE10      30.54F WCI -14
BLAIR          CLOUDY     9   3  75 S15       30.48F WCI  -8
FREMONT        CLOUDY     8   1  76 S9        30.48F WCI  -6
MILLARD        CLOUDY     6   1  81 SE3       30.54F
OFFUTT AFB     CLOUDY    -4  -9  80 SE3       30.54F
PLATTSMOUTH    PTCLDY     1  -3  83 S6        30.53F WCI -11
WAHOO          FAIR       4  -2  78 S8        30.51S WCI -10
$$




USA.gov is the U.S. government's official web portal to all federal, state and local government web resources and services.